Location: Richterswil
(47.2055°N, 8.7071°E)
Time: 07:54:38
(UTC+00:00)

STARLINK-1368 - Pass Details

Date: 07 June 2020
Orbit: 548 x 551 km, 53.0° (Epoch: 08 July)

Event Time Altitude Azimuth Distance (km) Brightness Sun altitude
Rises 02:35:01 0° 298° (WNW) 2,715 7.0 -7.9°
Reaches altitude 10° 02:37:16 10° 299° (WNW) 1,819 6.1 -7.6°
Maximum altitude 02:41:24 82° 28° (NNE) 556 3.7 -7.1°
Drops below altitude 10° 02:45:31 10° 116° (ESE) 1,810 6.5 -6.6°
Sets 02:47:45 0° 117° (ESE) 2,700 7.4 -6.4°
